Lancaster, OH

3:00 AM EDT on October 18, 2017 (GMT -0400)
Fairfield County

Weather History for KLHQ - November, 2011

Change the Weather History Date:

Thursday, November 24, 2011

  Actual Average Record
Temperature  
Mean Temperature 37 °F -  
Max Temperature 44 °F 48 °F 68 °F (2001)
Min Temperature 30 °F 29 °F 1 °F (1956)
Degree Days  
Heating Degree Days 28    
Moisture  
Dew Point 35 °F    
Average Humidity 95    
Maximum Humidity 100    
Minimum Humidity 81    
Precipitation  
Precipitation 0.00 in - - ()
Sea Level Pressure  
Sea Level Pressure 30.32 in    
Wind  
Wind Speed 5 mph (SW)    
Max Wind Speed 10 mph    
Max Gust Speed -    
Visibility 3 miles    
Events Fog    
Averages and records for this station are not official NWS values.
T = Trace of Precipitation, MM = Missing Value Source: NWS Daily Summary

Daily Weather History Graph

Daily Weather History Graph

Search for Another Location

Airport or City:

Trip Planner

Search our weather history database for the weather conditions in past years. The results will help you decide how hot, cold, wet, or windy it might be!

Date:

Astronomy

Nov. 24, 2011 Rise Set
Actual Time 7:25 AM EST 5:09 PM EST
Civil Twilight 6:55 AM EST 5:38 PM EST
Nautical Twilight 6:22 AM EST 6:11 PM EST
Astronomical Twilight 5:50 AM EST 6:44 PM EST
Moon 6:41 AM EST (11/24) 4:39 PM EST (11/24)
Length of Visible Light 10h 43m
Length of Day
9h 44m
Waning Crescent, 0% of the Moon is Illuminated
Nov 24
Waning Crescent
Nov 25
New
Dec 2
First Quarter
Dec 10
Full
Dec 17
Last Quarter

Hourly Weather History & Observations

Time (EST) Temp. Windchill Dew Point Humidity Pressure Visibility Wind Dir Wind Speed Gust Speed Precip Events Conditions
12:53 AM 30.9 °F 27.5 °F 30.0 °F 96% 30.28 in 7.0 mi SSE 3.5 mph - N/A   Clear
1:53 AM 32.0 °F 28.7 °F 30.0 °F 92% 30.29 in 6.0 mi WSW 3.5 mph - N/A   Clear
2:01 AM 33.8 °F 29.6 °F 32.0 °F 93% 30.27 in 5.0 mi West 4.6 mph - N/A   Scattered Clouds
2:08 AM 35.6 °F 31.7 °F 33.8 °F 93% 30.28 in 4.0 mi WSW 4.6 mph - N/A   Mostly Cloudy
2:15 AM 35.6 °F 29.9 °F 35.6 °F 100% 30.27 in 2.0 mi West 6.9 mph - N/A   Mostly Cloudy
2:21 AM 35.6 °F 30.7 °F 35.6 °F 100% 30.28 in 1.0 mi West 5.8 mph - N/A   Overcast
2:31 AM 35.6 °F 28.6 °F 33.8 °F 93% 30.28 in 0.5 mi West 9.2 mph - N/A Fog Fog
2:53 AM 35.1 °F 30.1 °F 35.1 °F 100% 30.31 in 0.8 mi West 5.8 mph - N/A   Mist
3:02 AM 35.6 °F 30.7 °F 35.6 °F 100% 30.29 in 1.0 mi West 5.8 mph - N/A   Overcast
3:10 AM 35.6 °F 29.2 °F 35.6 °F 100% 30.30 in 1.5 mi WNW 8.1 mph - N/A   Overcast
3:16 AM 35.6 °F 29.9 °F 35.6 °F 100% 30.30 in 2.5 mi WNW 6.9 mph - N/A   Overcast
3:27 AM 35.6 °F 28.6 °F 35.6 °F 100% 30.29 in 3.0 mi WNW 9.2 mph - N/A   Overcast
3:53 AM 36.0 °F 29.6 °F 35.1 °F 97% 30.31 in 3.0 mi WNW 8.1 mph - N/A   Overcast
4:53 AM 36.0 °F 31.1 °F 36.0 °F 100% 30.30 in 3.0 mi West 5.8 mph - N/A   Overcast
5:25 AM 37.4 °F 32.1 °F 35.6 °F 93% 30.29 in 2.5 mi West 6.9 mph - N/A   Overcast
5:53 AM 37.0 °F 31.6 °F 36.0 °F 96% 30.32 in 2.5 mi WSW 6.9 mph - N/A   Overcast
6:18 AM 37.4 °F - 37.4 °F 100% 30.32 in 2.0 mi Calm Calm - N/A   Overcast
6:53 AM 37.9 °F 33.5 °F 37.0 °F 97% 30.35 in 2.0 mi West 5.8 mph - N/A   Overcast
7:22 AM 37.4 °F 32.8 °F 37.4 °F 100% 30.33 in 1.5 mi WSW 5.8 mph - N/A   Overcast
7:53 AM 37.9 °F 33.5 °F 37.9 °F 100% 30.37 in 1.2 mi SW 5.8 mph - N/A   Overcast
8:01 AM 37.4 °F 31.4 °F 37.4 °F 100% 30.35 in 1.0 mi SW 8.1 mph - N/A   Overcast
8:53 AM 39.0 °F 34.0 °F 37.9 °F 96% 30.38 in 1.8 mi SW 6.9 mph - N/A   Overcast
9:35 AM 39.2 °F 33.6 °F 37.4 °F 93% 30.37 in 2.5 mi SSW 8.1 mph - N/A   Overcast
9:44 AM 39.2 °F 33.6 °F 37.4 °F 93% 30.37 in 2.0 mi SSW 8.1 mph - N/A   Overcast
9:53 AM 39.0 °F 32.8 °F 37.9 °F 96% 30.40 in 2.5 mi SW 9.2 mph - N/A   Overcast
10:03 AM 39.2 °F 33.0 °F 37.4 °F 93% 30.37 in 3.0 mi WSW 9.2 mph - N/A   Overcast
10:35 AM 39.2 °F 33.6 °F 37.4 °F 93% 30.37 in 3.0 mi SW 8.1 mph - N/A   Overcast
10:53 AM 39.9 °F 34.5 °F 37.9 °F 93% 30.39 in 3.0 mi SW 8.1 mph - N/A   Overcast
11:53 AM 39.9 °F 33.4 °F 37.9 °F 93% 30.38 in 4.0 mi SSW 10.4 mph - N/A   Overcast
12:31 PM 41.0 °F 35.8 °F 39.2 °F 93% 30.35 in 5.0 mi SW 8.1 mph - N/A   Overcast
12:53 PM 42.1 °F 36.6 °F 39.0 °F 89% 30.36 in 5.0 mi SW 9.2 mph - N/A   Overcast
2:53 PM 44.1 °F 40.8 °F 39.0 °F 82% 30.35 in 8.0 mi Variable 5.8 mph - N/A   Overcast
3:53 PM 44.1 °F 38.6 °F 39.0 °F 82% 30.34 in 8.0 mi SSW 10.4 mph - N/A   Overcast
5:53 PM 42.1 °F 37.1 °F 37.9 °F 85% 30.32 in 8.0 mi South 8.1 mph - N/A   Mostly Cloudy
6:00 PM 42.8 °F 38.6 °F 37.4 °F 81% 30.30 in 8.0 mi South 6.9 mph - N/A   Scattered Clouds
6:53 PM 34.0 °F - 33.1 °F 96% 30.34 in 6.0 mi Calm Calm - N/A   Clear
7:53 PM 32.0 °F - 32.0 °F 100% 30.34 in 4.0 mi Calm Calm - N/A   Clear
8:35 PM 33.8 °F - 32.0 °F 93% 30.31 in 2.0 mi Calm Calm - N/A   Clear
8:44 PM 33.8 °F - 33.8 °F 100% 30.30 in 2.5 mi Calm Calm - N/A   Clear
8:51 PM 33.8 °F 30.8 °F 32.0 °F 93% 30.30 in 4.0 mi SSE 3.5 mph - N/A   Clear
8:53 PM 33.1 °F 30.0 °F 32.0 °F 96% 30.32 in 4.0 mi SSE 3.5 mph - N/A   Clear
9:53 PM 34.0 °F - 33.1 °F 96% 30.32 in 4.0 mi Calm Calm - N/A   Clear
10:53 PM 32.0 °F 28.7 °F 30.9 °F 96% 30.30 in 2.5 mi SE 3.5 mph - N/A   Clear
11:04 PM 32.0 °F 28.7 °F 30.2 °F 93% 30.28 in 3.0 mi SSE 3.5 mph - N/A   Clear
11:36 PM 30.2 °F - 30.2 °F 100% 30.27 in 2.5 mi Calm Calm - N/A   Clear
11:38 PM 30.2 °F - 30.2 °F 100% 30.27 in 1.8 mi Calm Calm - N/A   Clear
11:53 PM 30.0 °F - 28.9 °F 96% 30.30 in 0.8 mi Calm Calm - N/A   Mist